Time,TemperatureF,DewpointF,PressureIn,WindDirection,WindDirectionDegrees,WindSpeedMPH,WindSpeedGustMPH,Humidity,HourlyPrecipIn,Conditions,Clouds,dailyrainin,SoftwareType,DateUTC
2013-05-15 00:02:00,75.0,55.0,-100.00,SSW,200,4.0,11.0,50,-99.99,,,-99.99,,2013-05-15 05:02:00,
2013-05-15 00:12:00,75.0,55.0,-100.00,SSW,200,4.0,11.0,50,-99.99,,,-99.99,,2013-05-15 05:12:00,
2013-05-15 00:21:00,73.0,54.0,-100.00,WSW,250,2.0,10.0,52,-99.99,,,-99.99,,2013-05-15 05:21:00,
2013-05-15 00:42:00,73.0,54.0,-100.00,WSW,250,2.0,10.0,52,-99.99,,,-99.99,,2013-05-15 05:42:00,
2013-05-15 00:52:00,73.0,54.0,-100.00,WSW,250,2.0,10.0,52,-99.99,,,-99.99,,2013-05-15 05:52:00,
2013-05-15 01:02:00,73.0,54.0,-100.00,WSW,250,2.0,10.0,52,-99.99,,,-99.99,,2013-05-15 06:02:00,
2013-05-15 01:11:00,73.0,54.0,-100.00,WSW,250,2.0,10.0,52,-99.99,,,-99.99,,2013-05-15 06:11:00,
2013-05-15 01:42:00,71.0,55.0,-100.00,West,260,4.0,8.0,58,-99.99,,,-99.99,,2013-05-15 06:42:00,
2013-05-15 01:52:00,71.0,55.0,-100.00,West,260,4.0,8.0,58,-99.99,,,-99.99,,2013-05-15 06:52:00,
2013-05-15 02:01:00,71.0,55.0,-100.00,West,260,4.0,8.0,58,-99.99,,,-99.99,,2013-05-15 07:01:00,
2013-05-15 02:11:00,71.0,55.0,-100.00,West,260,4.0,8.0,58,-99.99,,,-99.99,,2013-05-15 07:11:00,
2013-05-15 02:21:00,71.0,55.0,-100.00,West,260,4.0,8.0,58,-99.99,,,-99.99,,2013-05-15 07:21:00,
2013-05-15 02:42:00,73.0,43.0,-100.00,West,270,4.0,16.0,34,-99.99,,,-99.99,,2013-05-15 07:42:00,
2013-05-15 02:52:00,73.0,43.0,-100.00,West,270,4.0,16.0,34,-99.99,,,-99.99,,2013-05-15 07:52:00,
2013-05-15 03:12:00,73.0,43.0,-100.00,West,270,4.0,16.0,34,-99.99,,,-99.99,,2013-05-15 08:12:00,
2013-05-15 03:21:00,73.0,43.0,-100.00,West,270,4.0,16.0,34,-99.99,,,-99.99,,2013-05-15 08:21:00,
2013-05-15 03:42:00,68.0,39.0,-100.00,WNW,300,6.0,9.0,34,-99.99,,,-99.99,,2013-05-15 08:42:00,
2013-05-15 03:53:00,68.0,39.0,-100.00,WNW,300,6.0,9.0,34,-99.99,,,-99.99,,2013-05-15 08:53:00,
2013-05-15 04:01:00,68.0,39.0,-100.00,WNW,300,6.0,9.0,34,-99.99,,,-99.99,,2013-05-15 09:01:00,
2013-05-15 04:11:00,68.0,39.0,-100.00,WNW,300,6.0,9.0,34,-99.99,,,-99.99,,2013-05-15 09:11:00,
2013-05-15 04:21:00,68.0,39.0,-100.00,WNW,300,6.0,9.0,34,-99.99,,,-99.99,,2013-05-15 09:21:00,
2013-05-15 04:22:00,66.0,38.0,-100.00,NW,315,4.0,9.0,36,-99.99,,,-99.99,,2013-05-15 09:22:00,
2013-05-15 04:42:00,66.0,38.0,-100.00,NW,315,4.0,9.0,36,-99.99,,,-99.99,,2013-05-15 09:42:00,
2013-05-15 04:53:00,66.0,38.0,-100.00,NW,315,4.0,9.0,36,-99.99,,,-99.99,,2013-05-15 09:53:00,
2013-05-15 05:02:00,66.0,38.0,-100.00,NW,315,4.0,9.0,36,-99.99,,,-99.99,,2013-05-15 10:02:00,
2013-05-15 05:12:00,66.0,38.0,-100.00,NW,315,4.0,9.0,36,-99.99,,,-99.99,,2013-05-15 10:12:00,
2013-05-15 05:21:00,66.0,38.0,-100.00,WNW,300,7.0,12.0,36,-99.99,,,-99.99,,2013-05-15 10:21:00,
2013-05-15 05:43:00,66.0,38.0,-100.00,WNW,300,7.0,12.0,36,-99.99,,,-99.99,,2013-05-15 10:43:00,
2013-05-15 05:52:00,66.0,38.0,-100.00,WNW,300,7.0,12.0,36,-99.99,,,-99.99,,2013-05-15 10:52:00,
2013-05-15 06:10:00,66.0,38.0,-100.00,WNW,300,7.0,12.0,36,-99.99,,,-99.99,,2013-05-15 11:10:00,
2013-05-15 06:17:00,66.0,38.0,-100.00,WNW,300,7.0,12.0,36,-99.99,,,-99.99,,2013-05-15 11:17:00,
2013-05-15 06:22:00,64.0,40.0,-100.00,NW,325,7.0,12.0,42,-99.99,,,-99.99,,2013-05-15 11:22:00,
2013-05-15 06:50:00,64.0,40.0,-100.00,NW,325,7.0,12.0,42,-99.99,,,-99.99,,2013-05-15 11:50:00,
2013-05-15 07:08:00,64.0,40.0,-100.00,NW,325,7.0,12.0,42,-99.99,,,-99.99,,2013-05-15 12:08:00,
2013-05-15 07:22:00,66.0,43.0,-100.00,NW,320,9.0,15.0,43,-99.99,,,-99.99,,2013-05-15 12:22:00,
2013-05-15 07:49:00,66.0,43.0,-100.00,NW,320,9.0,15.0,43,-99.99,,,-99.99,,2013-05-15 12:49:00,
2013-05-15 07:57:00,66.0,43.0,-100.00,NW,320,9.0,15.0,43,-99.99,,,-99.99,,2013-05-15 12:57:00,
2013-05-15 08:09:00,66.0,43.0,-100.00,NW,320,9.0,15.0,43,-99.99,,,-99.99,,2013-05-15 13:09:00,
2013-05-15 08:16:00,66.0,43.0,-100.00,NW,320,9.0,15.0,43,-99.99,,,-99.99,,2013-05-15 13:16:00,
2013-05-15 08:23:00,66.0,45.0,-100.00,NW,325,16.0,27.0,47,-99.99,,,-99.99,,2013-05-15 13:23:00,
2013-05-15 08:48:00,66.0,45.0,-100.00,NW,325,16.0,27.0,47,-99.99,,,-99.99,,2013-05-15 13:48:00,
2013-05-15 08:58:00,66.0,45.0,-100.00,NW,325,16.0,27.0,47,-99.99,,,-99.99,,2013-05-15 13:58:00,
2013-05-15 09:05:00,66.0,45.0,-100.00,NW,325,16.0,27.0,47,-99.99,,,-99.99,,2013-05-15 14:05:00,
2013-05-15 09:22:00,67.0,46.0,-100.00,NNW,335,12.0,20.0,47,-99.99,,,-99.99,,2013-05-15 14:22:00,
2013-05-15 09:51:00,67.0,46.0,-100.00,NNW,335,12.0,20.0,47,-99.99,,,-99.99,,2013-05-15 14:51:00,
2013-05-15 09:59:00,67.0,46.0,-100.00,NNW,335,12.0,20.0,47,-99.99,,,-99.99,,2013-05-15 14:59:00,
2013-05-15 10:08:00,67.0,46.0,-100.00,NNW,335,12.0,20.0,47,-99.99,,,-99.99,,2013-05-15 15:08:00,
2013-05-15 10:15:00,67.0,46.0,-100.00,NNW,335,12.0,20.0,47,-99.99,,,-99.99,,2013-05-15 15:15:00,
2013-05-15 10:24:00,70.0,47.0,-100.00,North,0,12.0,17.0,43,-99.99,,,-99.99,,2013-05-15 15:24:00,
2013-05-15 10:49:00,70.0,47.0,-100.00,North,0,12.0,17.0,43,-99.99,,,-99.99,,2013-05-15 15:49:00,
2013-05-15 11:01:00,70.0,47.0,-100.00,North,0,12.0,17.0,43,-99.99,,,-99.99,,2013-05-15 16:01:00,
2013-05-15 11:10:00,70.0,47.0,-100.00,North,0,12.0,17.0,43,-99.99,,,-99.99,,2013-05-15 16:10:00,
2013-05-15 11:21:00,70.0,47.0,-100.00,North,0,12.0,17.0,43,-99.99,,,-99.99,,2013-05-15 16:21:00,
2013-05-15 11:23:00,73.0,45.0,-100.00,North,0,7.0,20.0,36,-99.99,,,-99.99,,2013-05-15 16:23:00,
2013-05-15 11:51:00,73.0,45.0,-100.00,North,0,7.0,20.0,36,-99.99,,,-99.99,,2013-05-15 16:51:00,
2013-05-15 11:59:00,73.0,45.0,-100.00,North,0,7.0,20.0,36,-99.99,,,-99.99,,2013-05-15 16:59:00,
2013-05-15 12:09:00,73.0,45.0,-100.00,North,0,7.0,20.0,36,-99.99,,,-99.99,,2013-05-15 17:09:00,
2013-05-15 12:23:00,75.0,43.0,-100.00,NNE,20,7.0,17.0,32,-99.99,,,-99.99,,2013-05-15 17:23:00,
2013-05-15 12:49:00,75.0,43.0,-100.00,NNE,20,7.0,17.0,32,-99.99,,,-99.99,,2013-05-15 17:49:00,
2013-05-15 12:59:00,75.0,43.0,-100.00,NNE,20,7.0,17.0,32,-99.99,,,-99.99,,2013-05-15 17:59:00,
2013-05-15 13:49:00,76.0,45.0,-100.00,WNW,290,9.0,15.0,33,-99.99,,,-99.99,,2013-05-15 18:49:00,
2013-05-15 13:57:00,76.0,45.0,-100.00,WNW,290,9.0,15.0,33,-99.99,,,-99.99,,2013-05-15 18:57:00,
2013-05-15 14:09:00,76.0,45.0,-100.00,WNW,290,9.0,15.0,33,-99.99,,,-99.99,,2013-05-15 19:09:00,
2013-05-15 14:15:00,76.0,45.0,-100.00,WNW,290,9.0,15.0,33,-99.99,,,-99.99,,2013-05-15 19:15:00,
2013-05-15 14:23:00,76.0,41.0,-100.00,SE,145,1.0,12.0,29,-99.99,,,-99.99,,2013-05-15 19:23:00,
2013-05-15 14:57:00,76.0,41.0,-100.00,SE,145,1.0,12.0,29,-99.99,,,-99.99,,2013-05-15 19:57:00,
2013-05-15 15:08:00,76.0,41.0,-100.00,SE,145,1.0,12.0,29,-99.99,,,-99.99,,2013-05-15 20:08:00,
2013-05-15 15:17:00,76.0,41.0,-100.00,SE,145,1.0,12.0,29,-99.99,,,-99.99,,2013-05-15 20:17:00,
2013-05-15 15:48:00,78.0,43.0,-100.00,WNW,285,4.0,9.0,29,-99.99,,,-99.99,,2013-05-15 20:48:00,
2013-05-15 16:24:00,76.0,42.0,-100.00,WNW,295,6.0,9.0,30,-99.99,,,-99.99,,2013-05-15 21:24:00,
2013-05-15 17:00:00,76.0,42.0,-100.00,WNW,295,6.0,9.0,30,-99.99,,,-99.99,,2013-05-15 22:00:00,
2013-05-15 17:10:00,76.0,42.0,-100.00,WNW,295,6.0,9.0,30,-99.99,,,-99.99,,2013-05-15 22:10:00,
2013-05-15 17:23:00,76.0,42.0,-100.00,NW,320,8.0,12.0,30,-99.99,,,-99.99,,2013-05-15 22:23:00,
2013-05-15 17:59:00,76.0,42.0,-100.00,NW,320,8.0,12.0,30,-99.99,,,-99.99,,2013-05-15 22:59:00,
2013-05-15 18:07:00,76.0,42.0,-100.00,NW,320,8.0,12.0,30,-99.99,,,-99.99,,2013-05-15 23:07:00,
2013-05-15 18:15:00,76.0,42.0,-100.00,NW,320,8.0,12.0,30,-99.99,,,-99.99,,2013-05-15 23:15:00,
2013-05-15 18:24:00,75.0,42.0,-100.00,NW,325,10.0,14.0,31,-99.99,,,-99.99,,2013-05-15 23:24:00,
2013-05-15 18:50:00,75.0,42.0,-100.00,NW,325,10.0,14.0,31,-99.99,,,-99.99,,2013-05-15 23:50:00,
2013-05-15 19:00:00,75.0,42.0,-100.00,NW,325,10.0,14.0,31,-99.99,,,-99.99,,2013-05-16 00:00:00,
2013-05-15 19:05:00,75.0,42.0,-100.00,NW,325,10.0,14.0,31,-99.99,,,-99.99,,2013-05-16 00:05:00,
2013-05-15 19:16:00,75.0,42.0,-100.00,NW,325,10.0,14.0,31,-99.99,,,-99.99,,2013-05-16 00:16:00,
2013-05-15 19:23:00,72.0,41.0,-100.00,NW,305,6.0,9.0,33,-99.99,,,-99.99,,2013-05-16 00:23:00,
2013-05-15 19:51:00,72.0,41.0,-100.00,NW,305,6.0,9.0,33,-99.99,,,-99.99,,2013-05-16 00:51:00,
2013-05-15 19:58:00,72.0,41.0,-100.00,NW,305,6.0,9.0,33,-99.99,,,-99.99,,2013-05-16 00:58:00,
2013-05-15 20:06:00,72.0,41.0,-100.00,NW,305,6.0,9.0,33,-99.99,,,-99.99,,2013-05-16 01:06:00,
2013-05-15 20:15:00,72.0,41.0,-100.00,NW,305,6.0,9.0,33,-99.99,,,-99.99,,2013-05-16 01:15:00,
2013-05-15 20:24:00,67.0,39.0,-100.00,NW,320,4.0,7.0,36,-99.99,,,-99.99,,2013-05-16 01:24:00,
2013-05-15 21:00:00,67.0,39.0,-100.00,NW,320,4.0,7.0,36,-99.99,,,-99.99,,2013-05-16 02:00:00,
2013-05-15 21:07:00,67.0,39.0,-100.00,NW,320,4.0,7.0,36,-99.99,,,-99.99,,2013-05-16 02:07:00,
2013-05-15 21:15:00,67.0,39.0,-100.00,NW,320,4.0,7.0,36,-99.99,,,-99.99,,2013-05-16 02:15:00,
2013-05-15 21:24:00,61.0,37.0,-100.00,NW,305,3.0,4.0,42,-99.99,,,-99.99,,2013-05-16 02:24:00,
2013-05-15 22:07:00,61.0,37.0,-100.00,NW,305,3.0,4.0,42,-99.99,,,-99.99,,2013-05-16 03:07:00,
2013-05-15 22:47:00,55.0,39.0,-100.00,NNW,340,0.0,1.0,55,-99.99,,,-99.99,,2013-05-16 03:47:00,
2013-05-15 22:56:00,55.0,39.0,-100.00,NNW,340,0.0,1.0,55,-99.99,,,-99.99,,2013-05-16 03:56:00,
2013-05-15 23:42:00,55.0,40.0,-100.00,North,355,0.0,2.0,58,-99.99,,,-99.99,,2013-05-16 04:42:00,
2013-05-15 23:53:00,55.0,40.0,-100.00,North,355,0.0,2.0,58,-99.99,,,-99.99,,2013-05-16 04:53:00,